Hourly Data Report for October 25, 2016

All times are specified in Local Standard Time (LST). Add 1 hour to adjust for Daylight Saving Time where and when it is observed.

SAINT JOHN A
NEW BRUNSWICK

45°18'58.000" N
65°53'24.000" W
108.80 m
8104901
71609
YSJ

Download Data

Hourly Data (October 2016)
Hourly Data Report for October 25, 2016
Temp Definition
°C
Dew Point Temp Definition
°C
Rel Hum Definition
%
Wind Dir Definition
10's deg

Wind Spd Definition
km/h
Visibility Definition
km
Stn Press Definition
kPa
Hmdx Definition


Wind Chill Definition


Weather Definition


TIME
00:00 Legend Double Dagger 3.0 -2.3 68 25 10 24.1 99.40     LegendNANA
01:00 Legend Double Dagger 2.5 -2.4 70 25 14 24.1 99.41     LegendNANA
02:00 Legend Double Dagger 2.5 -1.7 74 25 10 24.1 99.42     Mostly Cloudy
03:00 Legend Double Dagger 1.8 -1.3 80 25 8 24.1 99.42     LegendNANA
04:00 Legend Double Dagger 2.1 -1.0 80 26 13 24.1 99.44     LegendNANA
05:00 Legend Double Dagger 1.8 -0.9 82 27 10 24.1 99.47     Mostly Cloudy
06:00 Legend Double Dagger 1.7 -1.2 81 27 13 24.1 99.53     LegendNANA
07:00 Legend Double Dagger 1.7 -1.6 79 28 13 24.1 99.58     LegendNANA
08:00 Legend Double Dagger 2.6 -1.6 74 28 17 24.1 99.65     Mostly Cloudy
09:00 Legend Double Dagger 3.3 -1.5 71 27 22 24.1 99.67     LegendNANA
10:00 Legend Double Dagger 4.2 -1.6 66 28 22 24.1 99.67     LegendNANA
11:00 Legend Double Dagger 6.0 -1.4 59 29 21 24.1 99.65     Mostly Cloudy
12:00 Legend Double Dagger 6.0 -1.6 58 28 16 24.1 99.67     LegendNANA
13:00 Legend Double Dagger 5.9 -0.8 62 28 14 24.1 99.70     LegendNANA
14:00 Legend Double Dagger 6.0 -0.9 61 31 14 24.1 99.72     Cloudy
15:00 Legend Double Dagger 6.5 -0.9 59 31 17 24.1 99.77     LegendNANA
16:00 Legend Double Dagger 6.3 -0.2 63 28 10 24.1 99.80     LegendNANA
17:00 Legend Double Dagger 5.9 -0.2 65 29 11 24.1 99.87     Mostly Cloudy
18:00 Legend Double Dagger 5.3 0.5 71 31 11 24.1 99.95     Rain Showers
19:00 Legend Double Dagger 4.5 1.5 81 30 18 24.1 99.99     Rain Showers
20:00 Legend Double Dagger 4.1 2.1 87 30 14 24.1 100.04     Rain Showers
21:00 Legend Double Dagger 3.8 2.6 92 31 18 16.1 100.12     Rain
22:00 Legend Double Dagger 3.7 2.8 94 30 11 12.9 100.19     Rain
23:00 Legend Double Dagger 3.7 3.6 99 29 11 6.4 100.20     Rain,Fog

Notes on Data Quality.

Legend

  • E = Estimated
  • M = Missing
  • NA = Not Available
  • ‡ = Partner data that is not subject to review by the National Climate Archives
Date modified: